1494496800.47,14466,13.25,73010.8,10.33,-37.03,-39.29,0,*4B
1494496801.71,14467,13.25,73012.3,10.31,-38.55,-40.91,0,*49
1494496802.93,14468,13.25,73010.8,10.25,-37.99,-40.47,0,*47
1494496804.16,14469,13.19,73010.8,10.23,-38.05,-40.53,0,*4F
1494496805.37,14470,13.25,73012.3,10.17,-38.85,-41.41,0,*4A
1494496806.58,14471,13.25,73016.5,10.13,-39.65,-42.51,0,*42
1494496807.79,14472,13.19,73012.0,10.09,-38.17,-40.65,0,*4B
1494496809.05,14473,13.25,73012.3,10.05,-37.69,-40.09,0,*4A
1494496810.3,14474,13.25,73014.0,10.03,-35.65,-37.93,0,*46
1494496811.55,14475,13.25,73014.8,10.05,-35.65,-37.93,0,*41
1494496812.82,14476,13.19,73012.8,10.05,-35.23,-37.51,0,*4E
1494496814.07,14477,13.25,73012.5,10.01,-33.49,-35.71,0,*41
1494496815.33,14478,13.25,73012.5,10.01,-34.59,-36.79,0,*43
1494496816.53,14479,13.19,73014.3,9.99,-35.71,-38.17,0,*76
1494496817.72,14480,13.19,73014.5,9.99,-34.89,-37.45,0,*7E
1494496818.94,14481,13.25,73014.0,10.01,-36.31,-38.73,0,*4D
1494496820.14,14482,13.25,73014.5,9.99,-35.71,-38.43,0,*73
1494496821.36,14483,13.25,73018.8,9.99,-34.59,-36.67,0,*71
1494496822.58,14484,13.19,73012.5,9.99,-32.63,-34.77,0,*7A
1494496823.81,14485,13.25,73016.3,9.99,-34.13,-36.37,0,*7C
1494496825.05,14486,13.19,73014.8,9.99,-35.53,-37.69,0,*70
1494496826.29,14487,13.25,73018.0,9.99,-35.41,-37.69,0,*72
1494496827.51,14488,13.25,73018.8,9.99,-33.61,-35.59,0,*78
1494496828.75,14489,13.25,73014.8,10.01,-32.39,-34.35,0,*47
1494496829.98,14490,13.25,73018.5,9.99,-33.89,-35.77,0,*7B
1494496831.23,14491,13.19,73014.5,10.01,-31.39,-33.15,0,*48
1494496832.49,14492,13.25,73018.5,10.01,-31.11,-32.91,0,*4C
1494496833.73,14493,13.19,73014.8,10.05,-33.43,-35.47,0,*40
1494496834.93,14494,13.25,73018.8,10.05,-32.91,-34.71,0,*4D
1494496836.17,14495,13.25,73018.5,10.07,-34.71,-36.85,0,*4F
1494496837.39,14496,13.25,73018.0,10.05,-33.95,-36.01,0,*4F
1494496838.63,14497,13.25,73016.5,10.05,-35.13,-37.51,0,*42
1494496839.88,14498,13.25,73016.8,10.05,-36.79,-39.23,0,*49
1494496841.11,14499,13.25,73016.3,10.03,-36.01,-38.29,0,*4A
1494496842.34,14500,13.25,73016.5,10.03,-36.43,-38.67,0,*47
1494496843.57,14501,13.25,73016.0,10.01,-35.47,-37.57,0,*4F
1494496844.8,14502,13.19,73018.3,10.01,-34.25,-36.43,0,*4D
1494496846.03,14503,13.25,73020.5,9.99,-33.83,-35.83,0,*71
1494496847.28,14504,13.25,73018.3,9.99,-33.49,-35.41,0,*7E
1494496848.57,14505,13.25,73016.5,10.01,-33.89,-35.95,0,*43
1494496849.8,14506,13.25,73016.5,10.03,-34.01,-36.07,0,*4D
1494496851.03,14507,13.25,73020.0,10.03,-34.47,-36.61,0,*4E
1494496852.26,14508,13.25,73014.8,10.03,-34.95,-36.97,0,*47
1494496853.52,14509,13.19,73014.5,10.03,-34.19,-36.25,0,*4B
1494496854.72,14510,13.19,73012.5,10.03,-35.89,-38.05,0,*47
1494496855.98,14511,13.25,73014.3,10.01,-34.53,-36.43,0,*4E
1494496857.24,14512,13.25,73012.8,10.01,-34.77,-36.79,0,*42
1494496858.5,14513,13.25,73014.3,10.01,-34.53,-36.67,0,*4A
1494496859.76,14514,13.25,73012.3,10.01,-37.81,-39.91,0,*47
1494496860.96,14515,13.25,73014.0,9.99,-36.55,-38.61,0,*79
1494496862.17,14516,13.25,73010.8,9.99,-35.53,-37.27,0,*72
1494496863.42,14517,13.25,73012.8,9.95,-34.07,-35.95,0,*74
1494496864.64,14518,13.25,73014.3,9.95,-33.03,-34.83,0,*7E
1494496865.89,14519,13.25,73012.8,10.01,-32.07,-33.83,0,*48
1494496867.15,14520,13.25,73012.3,10.01,-32.79,-34.59,0,*4B
1494496868.37,14521,13.25,73008.5,10.05,-32.29,-33.95,0,*4C
1494496869.61,14522,13.25,73010.0,10.07,-31.05,-32.69,0,*42
1494496870.82,14523,13.25,73010.0,10.09,-30.67,-32.23,0,*46
1494496872.04,14524,13.25,73008.5,10.13,-30.39,-32.01,0,*41
1494496873.27,14525,13.25,73008.8,10.15,-32.01,-33.83,0,*44
1494496874.49,14526,13.19,73008.0,10.17,-32.45,-34.25,0,*4E
1494496875.74,14527,13.25,73014.3,10.17,-33.27,-35.35,0,*4A
1494496876.98,14528,13.19,73014.5,10.17,-31.57,-33.37,0,*44
1494496878.19,14529,13.25,73012.5,10.21,-33.37,-35.47,0,*45
1494496879.39,14530,13.25,73016.5,10.21,-35.13,-37.27,0,*49
1494496880.61,14531,13.25,73014.8,10.21,-35.53,-37.75,0,*4B
1494496881.81,14532,13.25,73012.8,10.17,-36.85,-38.97,0,*46
1494496883.03,14533,13.19,73014.3,10.15,-37.33,-39.35,0,*40
1494496884.3,14534,13.25,73014.0,10.15,-38.49,-40.73,0,*49
1494496885.58,14535,13.25,73012.0,10.11,-37.21,-39.29,0,*4C
1494496886.82,14536,13.25,73018.3,10.07,-36.31,-38.43,0,*45
1494496888.09,14537,13.19,73014.8,10.07,-34.31,-36.55,0,*4F
1494496889.32,14538,13.25,73016.3,10.09,-33.55,-35.53,0,*4E
1494496890.57,14539,13.25,73016.5,10.09,-33.89,-35.65,0,*4B
1494496891.78,14540,13.25,73018.3,10.09,-33.37,-35.47,0,*40
1494496892.99,14541,13.19,73016.3,10.09,-36.43,-38.61,0,*4E
1494496894.23,14542,13.25,73016.0,10.07,-36.67,-38.85,0,*4F
1494496895.48,14543,13.25,73020.0,10.07,-35.83,-38.05,0,*4F
1494496896.74,14544,13.25,73018.5,10.07,-36.31,-38.67,0,*46
1494496898.01,14545,13.25,73012.3,10.05,-38.91,-40.85,0,*42
1494496899.26,14546,13.25,73014.8,10.01,-37.03,-39.29,0,*49
1494496900.48,14547,13.25,73016.8,9.99,-39.85,-42.45,0,*77
1494496901.71,14548,13.19,73010.8,9.93,-40.03,-42.51,0,*77
1494496902.91,14549,13.19,73004.0,9.91,-38.73,-41.29,0,*70
1494496904.14,14550,13.25,73008.5,9.85,-39.91,-42.51,0,*7C
1494496905.39,14551,13.25,73010.8,9.85,-37.69,-39.85,0,*71
1494496906.61,14552,13.25,73004.8,9.85,-37.15,-39.91,0,*7C
1494496907.87,14553,13.25,73006.5,9.83,-38.23,-40.59,0,*7B
1494496909.11,14554,13.25,73012.0,9.81,-37.93,-39.35,0,*7E
1494496910.35,14555,13.19,73008.5,9.81,-36.79,-38.97,0,*73
1494496911.6,14556,13.25,73012.3,9.81,-38.11,-40.15,0,*75
1494496912.85,14557,13.25,73012.5,9.77,-36.85,-39.15,0,*70
1494496914.13,14558,13.25,73010.8,9.77,-35.95,-38.23,0,*79
1494496915.37,14559,13.19,73010.8,9.79,-35.83,-38.11,0,*70
1494496916.63,14560,13.25,73010.3,9.77,-36.25,-38.43,0,*7C
1494496917.85,14561,13.25,73008.5,9.77,-33.83,-35.71,0,*78
1494496919.08,14562,13.25,73010.0,9.79,-34.77,-36.79,0,*72
1494496920.34,14563,13.25,73010.3,9.81,-34.53,-36.43,0,*7B
1494496921.59,14564,13.25,73012.8,9.81,-33.77,-35.47,0,*7A
1494496922.81,14565,13.25,73012.3,9.81,-38.17,-40.53,0,*71
1494496924.04,14566,13.25,73008.3,9.81,-38.73,-40.91,0,*7E
1494496925.31,14567,13.19,73002.5,9.77,-37.39,-39.41,0,*74
1494496926.53,14568,13.19,73008.5,9.79,-36.07,-38.11,0,*7D
1494496927.78,14569,13.25,73014.0,9.77,-37.69,-39.91,0,*72
1494496929.02,14570,13.19,73008.0,9.77,-38.35,-40.79,0,*74
1494496930.28,14571,13.25,73008.3,9.77,-39.59,-42.37,0,*76
1494496931.53,14572,13.19,73006.5,9.69,-43.49,-45.47,0,*76
1494496932.77,14573,13.19,73002.0,9.65,-41.93,-45.13,0,*7F
1494496934.0,14574,13.19,73006.0,9.59,-45.21,-47.71,0,*7C
1494496935.22,14575,13.19,73010.5,9.49,-40.65,-42.89,0,*7B
1494496936.45,14576,13.25,73014.0,9.47,-38.49,-40.53,0,*72
1494496937.67,14577,13.19,73008.5,9.47,-38.91,-41.11,0,*71
1494496938.95,14578,13.25,73010.0,9.45,-37.93,-39.79,0,*70
1494496940.18,14579,13.25,73008.0,9.47,-39.03,-41.03,0,*76
1494496941.46,14580,13.19,73006.5,9.45,-38.11,-40.09,0,*7B
1494496942.7,14581,13.25,73010.8,9.43,-35.77,-37.63,0,*7D
1494496943.95,14582,13.19,73008.0,9.45,-36.61,-38.61,0,*71
1494496945.2,14583,13.25,73008.8,9.45,-36.67,-38.79,0,*7F
1494496946.46,14584,13.19,73006.3,9.45,-34.77,-36.49,0,*76
1494496947.68,14585,13.19,73008.8,9.47,-33.61,-35.71,0,*7D
1494496948.93,14586,13.25,73012.5,9.49,-40.73,-43.09,0,*79
1494496950.17,14587,13.19,73010.5,9.45,-40.47,-42.57,0,*79
1494496951.4,14588,13.19,73004.3,9.43,-37.93,-39.91,0,*7F
1494496952.63,14589,13.25,73006.0,9.41,-35.01,-36.85,0,*7F
1494496953.86,14590,13.25,73010.5,9.43,-35.29,-37.09,0,*7A
1494496955.09,14591,13.25,73010.8,9.43,-35.89,-37.81,0,*71
1494496956.37,14592,13.25,73014.8,9.45,-36.91,-39.15,0,*7D
1494496957.62,14593,13.19,73012.5,9.45,-36.61,-38.73,0,*72
1494496958.87,14594,13.25,73010.5,9.45,-35.89,-37.81,0,*72
1494496960.08,14595,13.19,73010.0,9.47,-34.77,-36.73,0,*7D
1494496961.3,14596,13.25,73014.3,9.47,-35.13,-37.21,0,*7B
1494496962.5,14597,13.25,73014.0,9.47,-36.55,-38.73,0,*73
1494496963.71,14598,13.25,73012.0,9.47,-40.03,-41.93,0,*7E
1494496964.96,14599,13.25,73014.3,9.45,-39.97,-41.87,0,*7B
1494496966.18,14600,13.25,73014.8,9.41,-37.27,-39.47,0,*7A
1494496967.44,14601,13.25,73014.0,9.41,-37.81,-39.85,0,*79
1494496968.68,14602,13.25,73014.8,9.41,-35.53,-37.45,0,*75
1494496969.94,14603,13.25,73018.3,9.41,-35.77,-37.51,0,*77
1494496971.17,14604,13.25,73012.5,9.43,-35.47,-37.39,0,*7F
1494496972.38,14605,13.25,73012.8,9.43,-35.77,-37.75,0,*75
1494496973.62,14606,13.25,73014.8,9.43,-36.13,-37.93,0,*7F
1494496974.83,14607,13.25,73012.0,9.43,-35.77,-37.75,0,*77
1494496976.05,14608,13.25,73008.8,9.47,-34.89,-36.61,0,*78
1494496977.28,14609,13.25,73012.0,9.47,-34.35,-36.19,0,*71
1494496978.47,14610,13.25,73008.0,9.47,-33.95,-35.71,0,*79
1494496979.75,14611,13.25,73012.3,9.53,-35.23,-37.09,0,*7B
1494496981.0,14612,13.25,73014.3,9.49,-34.31,-35.71,0,*7C
1494496982.2,14613,13.25,73012.5,9.55,-33.21,-35.01,0,*71
1494496983.43,14614,13.25,73008.5,9.55,-34.95,-37.03,0,*7E
1494496984.71,14615,13.25,73014.8,9.57,-34.95,-36.61,0,*78
1494496985.94,14616,13.25,73008.5,9.57,-33.37,-35.29,0,*7B
1494496987.16,14617,13.25,73008.5,9.57,-35.47,-37.45,0,*73
1494496988.41,14618,13.25,73008.5,9.57,-35.71,-37.81,0,*71
1494496989.68,14619,13.25,73014.3,9.57,-36.91,-39.23,0,*7B
1494496990.93,14620,13.25,73010.8,9.57,-37.75,-39.97,0,*75
1494496992.18,14621,13.25,73014.3,9.57,-36.73,-38.79,0,*72
1494496993.43,14622,13.25,73012.5,9.55,-35.95,-37.93,0,*73
1494496994.65,14623,13.25,73012.8,9.55,-37.63,-39.91,0,*75
1494496995.9,14624,13.25,73008.3,9.55,-37.39,-39.15,0,*71
1494496997.12,14625,13.25,73010.3,9.55,-36.67,-38.79,0,*71
1494496998.35,14626,13.25,73008.3,9.55,-38.17,-40.41,0,*7F
1494496999.59,14627,13.25,73008.5,9.53,-35.35,-37.33,0,*70
1494497000.84,14628,13.25,73008.8,9.49,-34.89,-36.79,0,*7D
1494497002.1,14629,13.25,73008.8,9.53,-36.79,-39.03,0,*78
1494497003.38,14630,13.25,73010.8,9.53,-36.37,-38.67,0,*79
1494497004.65,14631,13.25,73008.3,9.49,-38.29,-40.29,0,*77
1494497005.88,14632,13.25,73006.0,9.49,-35.89,-37.75,0,*7A
1494497007.1,14633,13.25,73006.5,9.49,-38.35,-40.53,0,*75
1494497008.36,14634,13.25,73008.3,9.45,-39.59,-41.73,0,*76
1494497009.6,14635,13.25,73010.8,9.43,-38.17,-40.59,0,*73
1494497010.86,14636,13.25,73010.3,9.41,-40.41,-42.75,0,*72
1494497012.11,14637,13.25,73014.8,9.39,-37.87,-40.41,0,*73
1494497013.33,14638,13.25,73010.5,9.37,-40.73,-43.21,0,*7C
1494497014.55,14639,13.19,73004.8,9.35,-38.55,-40.53,0,*72
1494497015.8,14640,13.25,73010.8,9.35,-35.83,-37.75,0,*7E
1494497017.02,14641,13.25,73008.0,9.37,-35.23,-37.33,0,*75
1494497018.21,14642,13.25,73004.5,9.37,-38.73,-41.41,0,*7A
1494497019.41,14643,13.25,73008.5,9.33,-40.73,-42.89,0,*77
1494497020.63,14644,13.25,73008.0,9.33,-37.03,-39.29,0,*71
1494497021.87,14645,13.25,73010.8,9.31,-38.97,-41.23,0,*75
1494497023.09,14646,13.25,73004.0,9.27,-40.65,-42.89,0,*70
1494497024.32,14647,13.25,73012.0,9.23,-43.35,-45.87,0,*7A
1494497025.54,14648,13.25,73010.3,9.21,-40.47,-42.69,0,*76
1494497026.79,14649,13.25,73010.3,9.19,-37.51,-39.85,0,*75
1494497027.99,14650,13.19,73010.3,9.17,-36.97,-39.09,0,*7C
1494497029.24,14651,13.25,73014.0,9.17,-37.39,-39.29,0,*7A
1494497030.5,14652,13.25,73008.5,9.17,-38.11,-40.41,0,*7C
1494497031.72,14653,13.25,73012.5,9.17,-38.73,-40.79,0,*72
1494497032.97,14654,13.25,73014.3,9.17,-38.67,-40.79,0,*70
1494497034.19,14655,13.25,73014.8,9.15,-40.03,-42.25,0,*75
1494497035.45,14656,13.19,73010.3,9.15,-36.43,-38.29,0,*72
1494497036.72,14657,13.25,73016.3,9.15,-34.35,-36.13,0,*77
1494497037.95,14658,13.25,73014.3,9.17,-34.13,-36.13,0,*7E
1494497039.18,14659,13.25,73014.0,9.21,-36.07,-38.29,0,*7A
1494497040.45,14660,13.25,73010.3,9.19,-40.15,-42.19,0,*77
1494497041.7,14661,13.25,73010.0,9.19,-40.59,-42.63,0,*73
1494497042.92,14662,13.25,73006.8,9.13,-40.65,-42.95,0,*7C
1494497044.18,14663,13.25,73008.5,9.11,-40.97,-43.01,0,*7E
1494497045.46,14664,13.25,73006.8,9.11,-39.41,-41.55,0,*7F
1494497046.73,14665,13.25,73012.0,9.05,-39.03,-41.23,0,*7C
1494497047.97,14666,13.25,73012.5,9.05,-40.47,-42.57,0,*71
1494497049.19,14667,13.25,73006.5,9.01,-40.03,-42.13,0,*74
1494497050.42,14668,13.25,73014.0,8.99,-39.59,-41.73,0,*7F
1494497051.64,14669,13.25,73006.5,8.97,-38.97,-40.73,0,*72
1494497052.92,14670,13.25,73012.3,8.97,-39.53,-41.35,0,*70
1494497054.12,14671,13.25,73006.5,8.95,-39.47,-41.41,0,*75
1494497055.37,14672,13.25,73004.8,8.93,-39.03,-41.03,0,*76
1494497056.62,14673,13.25,73008.8,8.93,-38.91,-40.73,0,*7B
1494497057.83,14674,13.25,73006.0,8.91,-38.55,-40.53,0,*74
1494497059.05,14675,13.25,73006.8,8.91,-38.91,-41.11,0,*7A
1494497060.3,14676,13.25,73004.0,8.89,-39.71,-41.61,0,*78
1494497061.55,14677,13.25,73004.5,8.89,-38.79,-40.35,0,*70
1494497062.78,14678,13.25,73004.3,8.87,-36.85,-38.79,0,*7B
1494497064.0,14679,13.25,73004.0,8.87,-37.21,-38.97,0,*75
1494497065.2,14680,13.25,73006.3,8.87,-36.85,-38.61,0,*75
1494497066.46,14681,13.25,73002.3,8.89,-37.87,-39.79,0,*71
1494497067.7,14682,13.25,73002.0,8.89,-36.13,-38.05,0,*74
1494497068.94,14683,13.25,73004.3,8.89,-36.13,-38.05,0,*75
1494497070.21,14684,13.25,73006.5,8.89,-37.39,-39.59,0,*73
1494497071.45,14685,13.25,73004.0,8.89,-42.37,-44.67,0,*79
1494497072.71,14686,13.25,73004.5,8.85,-41.35,-43.61,0,*76
1494497073.93,14687,13.25,73004.0,8.79,-45.53,-47.93,0,*79
1494497075.16,14688,13.25,73004.0,8.71,-44.99,-47.31,0,*71
1494497076.39,14689,13.25,73006.0,8.65,-42.05,-44.27,0,*72
1494497077.62,14690,13.25,73004.5,8.65,-39.23,-41.41,0,*77
1494497078.87,14691,13.25,73006.5,8.63,-38.61,-40.79,0,*7D
1494497080.16,14692,13.25,73008.8,8.63,-39.79,-42.05,0,*7F
1494497081.42,14693,13.25,73006.0,8.63,-41.35,-43.49,0,*70
1494497082.65,14694,13.25,73004.0,8.57,-38.97,-40.97,0,*76
1494497083.84,14695,13.25,73010.5,8.57,-38.35,-40.47,0,*72
1494497085.1,14696,13.25,73006.0,8.57,-42.31,-44.21,0,*7C
1494497086.32,14697,13.25,73002.3,8.53,-40.53,-42.45,0,*7B
1494497087.55,14698,13.25,73000.8,8.51,-36.73,-38.61,0,*7E
1494497088.78,14699,13.25,73006.5,8.51,-35.89,-37.87,0,*7E
1494497089.97,14700,13.25,73004.8,8.53,-35.71,-37.45,0,*74
1494497091.24,14701,13.25,73002.0,8.55,-34.01,-35.89,0,*77
1494497092.5,14702,13.25,73006.3,8.59,-33.43,-35.29,0,*73
1494497093.75,14703,13.25,73004.0,8.63,-33.37,-35.23,0,*72
1494497095.01,14704,13.25,73004.8,8.67,-34.41,-36.25,0,*72
1494497096.23,14705,13.25,73006.5,8.69,-33.55,-35.53,0,*7D
1494497097.46,14706,13.25,73004.0,8.71,-34.89,-36.97,0,*7A
1494497098.71,14707,13.25,73002.5,8.73,-35.95,-37.99,0,*7A
1494497099.94,14708,13.25,73004.3,8.73,-34.53,-36.73,0,*7B
1494497101.17,14709,13.25,73004.8,8.73,-35.07,-37.27,0,*7A
1494497102.42,14710,13.25,73008.0,8.75,-34.35,-36.43,0,*77
1494497103.66,14711,13.25,73006.8,8.77,-33.67,-35.77,0,*70
1494497104.91,14712,13.25,73010.5,8.81,-35.13,-37.21,0,*7E
1494497106.14,14713,13.25,73010.3,8.79,-35.13,-37.21,0,*78
1494497107.37,14714,13.25,73008.5,8.79,-33.83,-35.83,0,*7A
1494497108.61,14715,13.25,73004.5,8.81,-34.41,-36.55,0,*7D
1494497109.83,14716,13.25,73006.3,8.85,-34.89,-37.15,0,*7B
1494497111.06,14717,13.25,73004.8,8.87,-36.73,-39.15,0,*71
1494497112.25,14718,13.25,73006.3,8.87,-34.41,-36.43,0,*71
1494497113.53,14719,13.25,73008.5,8.89,-33.31,-35.35,0,*7C
1494497114.78,14720,13.25,73008.3,8.91,-34.19,-36.25,0,*70
1494497116.01,14721,13.25,73008.8,8.91,-34.95,-37.15,0,*77
1494497117.23,14722,13.25,73012.8,8.91,-35.71,-38.11,0,*74
1494497118.48,14723,13.25,73010.8,8.91,-36.79,-39.03,0,*7C
1494497119.7,14724,13.25,73008.8,8.91,-36.01,-37.99,0,*79
1494497120.91,14725,13.25,73014.0,8.91,-34.59,-36.67,0,*77
1494497122.12,14726,13.25,73010.3,8.91,-33.95,-36.01,0,*73
1494497123.34,14727,13.25,73012.5,8.97,-32.91,-35.01,0,*72
1494497124.59,14728,13.25,73008.3,8.97,-32.75,-34.59,0,*7B
1494497125.82,14729,13.25,73012.5,8.99,-31.73,-33.37,0,*7E
1494497127.01,14730,13.25,73012.5,9.03,-32.01,-33.95,0,*7A
1494497128.27,14731,13.25,73014.0,9.09,-32.97,-34.95,0,*79
1494497129.55,14732,13.25,73012.8,9.11,-32.07,-33.89,0,*70
1494497130.78,14733,13.25,73014.8,9.13,-32.19,-34.07,0,*7D
1494497132.01,14734,13.25,73012.3,9.17,-31.05,-32.75,0,*73
1494497133.28,14735,13.25,73012.3,9.19,-30.89,-32.63,0,*7E
1494497134.53,14736,13.25,73012.5,9.23,-30.45,-32.07,0,*76
1494497135.73,14737,13.25,73010.5,9.25,-31.33,-33.21,0,*74
1494497136.95,14738,13.25,73014.0,9.31,-31.45,-33.55,0,*7C
1494497138.17,14739,13.25,73010.3,9.35,-33.15,-35.17,0,*7E
1494497139.45,14740,13.25,73010.0,9.35,-34.53,-36.61,0,*77
1494497140.71,14741,13.25,73004.3,9.35,-33.83,-35.95,0,*74
1494497141.96,14742,13.25,73006.8,9.33,-37.39,-39.79,0,*7A
1494497143.19,14743,13.25,73018.8,9.33,-39.09,-41.55,0,*77
1494497144.45,14744,13.25,73020.5,9.27,-39.91,-42.31,0,*75
1494497145.73,14745,13.25,73014.0,9.23,-37.63,-39.79,0,*73
1494497147.0,14746,13.25,73016.8,9.23,-36.25,-38.11,0,*7C
1494497148.26,14747,13.25,73016.3,9.23,-34.95,-37.03,0,*78
1494497149.49,14748,13.25,73016.3,9.23,-34.71,-36.85,0,*72
1494497150.72,14749,13.25,73014.5,9.23,-36.85,-39.09,0,*71
1494497151.96,14750,13.25,73012.8,9.23,-38.11,-40.35,0,*7B
1494497153.2,14751,13.25,73014.8,9.21,-38.61,-40.85,0,*74
1494497154.45,14752,13.25,73012.8,9.19,-36.37,-38.35,0,*75
1494497155.68,14753,13.25,73014.5,9.19,-36.19,-38.17,0,*78
1494497156.91,14754,13.25,73018.0,9.19,-36.55,-38.43,0,*76
1494497158.16,14755,13.25,73016.0,9.19,-35.95,-37.87,0,*7F
1494497159.38,14756,13.25,73010.8,9.17,-37.45,-39.53,0,*7A
1494497160.61,14757,13.25,73014.0,9.17,-37.75,-39.79,0,*70
1494497161.89,14758,13.25,73012.5,9.15,-36.25,-38.29,0,*7D
1494497163.15,14759,13.25,73006.8,9.15,-38.85,-40.85,0,*71
1494497164.38,14760,13.25,73004.5,9.13,-38.79,-40.65,0,*70
1494497165.64,14761,13.25,73008.0,9.11,-38.35,-40.59,0,*74
1494497166.85,14762,13.25,73010.5,9.09,-38.73,-40.91,0,*78
1494497168.07,14763,13.25,73006.0,9.09,-37.03,-39.23,0,*76
1494497169.34,14764,13.25,73012.8,9.05,-38.23,-40.21,0,*7C
1494497170.61,14765,13.25,73010.0,9.05,-38.23,-40.09,0,*77
1494497171.88,14766,13.25,73010.0,9.05,-38.29,-40.29,0,*7C
1494497173.07,14767,13.25,73014.5,9.03,-35.47,-37.33,0,*75
1494497174.33,14768,13.25,73012.5,9.03,-34.53,-36.25,0,*78
1494497175.56,14769,13.25,73014.8,9.05,-32.69,-34.47,0,*76
1494497176.78,14770,13.25,73012.5,9.09,-32.23,-33.89,0,*79
1494497178.02,14771,13.25,73014.0,9.15,-31.79,-33.61,0,*7F
1494497179.25,14772,13.25,73016.8,9.17,-32.69,-34.31,0,*7E
1494497180.48,14773,13.25,73012.0,9.23,-32.39,-34.07,0,*78
1494497181.71,14774,13.25,73012.3,9.21,-32.75,-34.59,0,*7E
1494497182.98,14775,13.25,73014.8,9.23,-32.19,-33.89,0,*7D
1494497184.23,14776,13.25,73018.0,9.27,-35.29,-37.39,0,*71
1494497185.49,14777,13.25,73016.8,9.27,-39.47,-41.67,0,*7E
1494497186.76,14778,13.25,73012.5,9.23,-38.61,-40.97,0,*7E
1494497188.01,14779,13.25,73010.3,9.19,-35.89,-37.81,0,*7A
1494497189.23,14780,13.25,73010.0,9.21,-37.03,-39.29,0,*7B
1494497190.5,14781,13.25,73004.3,9.19,-40.21,-42.57,0,*74
1494497191.77,14782,13.25,73008.3,9.15,-37.39,-39.59,0,*70
1494497193.03,14783,13.25,73012.8,9.15,-34.83,-36.97,0,*7E
1494497194.28,14784,13.25,73012.8,9.17,-34.19,-36.13,0,*74
1494497195.51,14785,13.25,73014.3,9.17,-36.55,-38.91,0,*7B
1494497196.77,14786,13.25,73010.3,9.17,-36.25,-38.23,0,*76
1494497197.97,14787,13.25,73008.3,9.17,-34.89,-36.97,0,*72
1494497199.22,14788,13.25,73008.5,9.17,-35.83,-37.93,0,*73
1494497200.45,14789,13.25,73004.3,9.17,-37.33,-39.79,0,*71
1494497201.68,14790,13.25,73004.5,9.19,-35.71,-37.87,0,*7C
1494497202.93,14791,13.25,73006.8,9.17,-40.09,-42.69,0,*7C
1494497204.19,14792,13.25,73000.5,9.13,-39.71,-42.05,0,*70
1494497205.42,14793,13.25,73012.3,9.11,-41.11,-43.35,0,*78
1494497206.69,14794,13.25,73010.3,9.05,-39.03,-41.23,0,*73
1494497207.94,14795,13.25,73010.8,9.05,-40.21,-42.63,0,*7B
1494497209.18,14796,13.25,73004.8,9.01,-41.93,-44.41,0,*72
1494497210.4,14797,13.25,73000.0,8.99,-41.93,-44.27,0,*73
1494497211.67,14798,13.25,73008.3,8.93,-40.29,-42.83,0,*7E
1494497212.92,14799,13.25,73006.0,8.89,-46.97,-49.53,0,*71
1494497214.17,14800,13.25,73008.0,8.85,-43.67,-46.35,0,*77
1494497215.42,14801,13.25,73014.0,8.75,-44.33,-46.97,0,*77
1494497216.61,14802,13.25,73014.5,8.73,-41.17,-43.87,0,*75
1494497217.89,14803,13.25,73014.0,8.71,-40.85,-43.09,0,*7A
1494497219.12,14804,13.25,73014.5,8.67,-40.91,-43.15,0,*72
1494497220.39,14805,13.25,73012.5,8.67,-41.55,-43.81,0,*77
1494497221.65,14806,13.25,73008.5,8.63,-39.41,-41.99,0,*71
1494497222.88,14807,13.25,73004.0,8.57,-43.61,-46.49,0,*72
1494497224.12,14808,13.25,73010.8,8.57,-44.87,-47.37,0,*7A
1494497225.34,14809,13.25,73002.0,8.53,-42.37,-44.67,0,*74
1494497226.59,14810,13.25,73002.5,8.47,-41.73,-44.01,0,*7A
1494497227.85,14811,13.25,73008.8,8.49,-39.79,-41.81,0,*7D
1494497229.09,14812,13.25,73008.0,8.47,-39.65,-41.87,0,*7B
1494497230.34,14813,13.25,73004.8,8.45,-41.35,-43.81,0,*76
1494497231.56,14814,13.25,73004.3,8.39,-42.83,-45.21,0,*78
1494497232.78,14815,13.25,73000.3,8.39,-41.81,-43.95,0,*71
1494497233.99,14816,13.25,73006.3,8.35,-41.03,-43.35,0,*7E
1494497235.21,14817,13.25,73000.0,8.29,-41.61,-43.87,0,*7F
1494497236.44,14818,13.25,73006.8,8.29,-39.47,-41.49,0,*7B
1494497237.71,14819,13.25,73010.0,8.29,-40.59,-42.83,0,*7E
1494497238.9,14820,13.25,73006.0,8.27,-41.61,-43.87,0,*75
1494497240.14,14821,13.25,73004.3,8.27,-40.21,-42.45,0,*7E
1494497241.39,14822,13.25,73008.3,8.25,-42.63,-44.93,0,*76
1494497242.63,14823,13.25,73010.3,8.21,-41.55,-43.61,0,*7F
1494497243.86,14824,13.25,73008.3,8.21,-38.17,-40.15,0,*70
1494497245.09,14825,13.25,73012.3,8.21,-38.61,-40.91,0,*7C
1494497246.34,14826,13.25,73010.0,8.21,-40.29,-43.35,0,*71
1494497247.59,14827,13.25,73008.5,8.17,-42.63,-44.93,0,*72
1494497248.86,14828,13.25,73016.0,8.17,-41.35,-43.81,0,*79
1494497250.08,14829,13.25,73012.5,8.15,-40.85,-43.15,0,*7D
1494497251.34,14830,13.25,73006.5,8.11,-39.15,-40.53,0,*77
1494497252.59,14831,13.25,73000.3,8.11,-39.41,-41.99,0,*70
1494497253.82,14832,13.25,73006.0,8.09,-41.99,-44.21,0,*76
1494497255.09,14833,13.25,73010.5,8.07,-40.79,-43.09,0,*7B
1494497256.3,14834,13.25,73006.8,8.09,-39.09,-41.11,0,*70
1494497257.52,14835,13.25,73006.5,8.07,-37.87,-40.03,0,*75
1494497258.78,14836,13.25,73004.8,8.07,-38.85,-40.97,0,*76
1494497260.03,14837,13.25,73002.0,8.07,-38.85,-40.85,0,*74
1494497261.31,14838,13.25,73002.8,8.07,-38.79,-40.79,0,*7B
1494497262.56,14839,13.25,73006.3,8.09,-38.49,-40.29,0,*72
1494497263.77,14840,13.25,73006.0,8.09,-36.43,-38.35,0,*7A
1494497264.99,14841,13.25,73004.5,8.09,-37.27,-39.15,0,*7B
1494497266.24,14842,13.25,73008.0,8.09,-37.39,-39.23,0,*72
1494497267.44,14843,13.25,73006.3,8.09,-36.73,-38.73,0,*78
1494497268.64,14844,13.25,73014.3,8.15,-36.55,-38.55,0,*72
1494497269.86,14845,13.25,73014.3,8.15,-36.07,-38.11,0,*74
1494497271.06,14846,13.25,73008.3,8.15,-36.67,-38.55,0,*71
1494497272.3,14847,13.25,73010.8,8.17,-35.41,-37.45,0,*7B
1494497273.54,14848,13.25,73010.0,8.19,-36.13,-38.11,0,*70
1494497274.75,14849,13.25,73008.3,8.19,-36.01,-37.87,0,*72
1494497275.96,14850,13.25,73010.8,8.23,-34.77,-36.55,0,*7E
1494497277.17,14851,13.25,73004.0,8.23,-35.41,-37.45,0,*7B
1494497278.36,14852,13.25,73000.8,8.27,-35.29,-37.33,0,*73
1494497279.64,14853,13.25,73004.5,8.29,-36.61,-38.67,0,*7D
1494497280.86,14854,13.25,73006.8,8.29,-38.05,-40.03,0,*7B
1494497282.1,14855,13.25,73008.5,8.25,-40.21,-42.63,0,*7B
1494497283.32,14856,13.25,73008.8,8.25,-40.65,-43.15,0,*78
1494497284.57,14857,13.25,73000.8,8.21,-42.19,-44.61,0,*70
1494497285.82,14858,13.25,73004.5,8.17,-40.47,-42.83,0,*79
1494497287.07,14859,13.25,73006.0,8.15,-40.41,-43.09,0,*7F
1494497288.27,14860,13.25,73006.0,8.09,-42.37,-45.21,0,*77
1494497289.52,14861,13.25,73002.5,8.07,-42.19,-44.53,0,*70
1494497290.79,14862,13.25,73000.8,8.07,-38.49,-40.79,0,*77
1494497292.0,14863,13.25,72998.5,8.05,-38.55,-40.91,0,*7F
1494497293.19,14864,13.25,73000.8,8.05,-40.73,-43.15,0,*7C
1494497294.45,14865,13.25,73000.0,8.03,-41.03,-43.67,0,*78
1494497295.65,14866,13.25,72998.0,8.01,-41.99,-44.61,0,*7B
1494497296.92,14867,13.25,73004.8,7.99,-42.45,-45.07,0,*77
1494497298.17,14868,13.25,73002.5,7.95,-42.13,-44.67,0,*70
1494497299.42,14869,13.25,73004.3,7.95,-39.29,-41.61,0,*77
1494497300.65,14870,13.25,73004.5,7.93,-39.03,-41.41,0,*73
1494497301.88,14871,13.25,73002.3,7.89,-40.47,-42.95,0,*7D